CW1490 Weather Reports


Display with metric or nautical units.
time (UTC)temp
F
wind
direction
speed
MPH
gust
MPH
rain 1hr
in
rain 24hr
in
rain mn
in
humidity
%
barometer
mb
20260901172013 64 38 6.0 11.0 0.02 0.34 0.34 95 1017.6
20260901171527 64 63 7.0 11.0 0.01 0.33 0.33 94 1017.6
20260901171015 64 38 5.0 10.0 0.02 0.33 0.33 94 1017.6
20260901170504 64 36 4.0 6.0 0.03 0.33 0.33 95 1017.6
20260901170008 64 49 3.0 5.0 0.04 0.33 0.33 94 1017.6
20260901165503 64 51 3.0 4.0 0.05 0.33 0.33 94 1017.7
20260901165007 64 9 0.0 5.0 0.05 0.33 0.33 94 1017.6
20260901164514 64 282 1.0 6.0 0.05 0.33 0.33 94 1017.6
20260901164007 64 298 2.0 11.0 0.06 0.33 0.33 94 1017.6
20260901163509 64 338 2.0 12.0 0.06 0.32 0.32 94 1017.5
20260901163020 64 9 7.0 12.0 0.08 0.32 0.32 94 1017.4
20260901162510 64 33 5.0 16.0 0.10 0.32 0.32 94 1017.2
20260901162011 64 40 10.0 16.0 0.10 0.32 0.32 94 1017.2
20260901161536 64 28 8.0 13.0 0.10 0.32 0.32 94 1016.9
20260901161016 64 84 8.0 13.0 0.09 0.31 0.31 94 1016.8
20260901160512 64 54 6.0 10.0 0.08 0.30 0.30 94 1017.0
20260901160029 64 43 3.0 8.0 0.07 0.29 0.29 94 1017.4
20260901155516 64 22 4.0 9.0 0.06 0.28 0.28 94 1017.7
20260901155017 63 36 3.0 10.0 0.06 0.28 0.28 94 1017.8
20260901154511 64 29 5.0 10.0 0.06 0.28 0.28 94 1017.8
20260901154006 64 36 5.0 10.0 0.05 0.27 0.27 94 1017.8
20260901153509 64 9 5.0 12.0 0.04 0.26 0.26 93 1017.7
20260901153054 64 22 6.0 12.0 0.02 0.24 0.24 93 1017.7
20260901152517 63 25 6.0 12.0 0.00 0.22 0.22 93 1017.7
20260901152009 64 20 5.0 12.0 0.00 0.22 0.22 93 1017.7
20260901151538 63 21 6.0 12.0 0.00 0.22 0.22 93 1017.7
20260901151011 64 18 6.0 13.0 0.00 0.22 0.22 93 1017.6
20260901150512 64 43 8.0 13.0 0.00 0.22 0.22 93 1017.6
20260901150036 64 34 6.0 13.0 0.00 0.22 0.22 93 1017.6
20260901145512 64 44 8.0 13.0 0.00 0.22 0.22 93 1017.4
20260901145017 65 67 9.0 14.0 0.00 0.22 0.22 93 1017.3
20260901144540 65 24 8.0 14.0 0.00 0.22 0.22 94 1017.3
20260901144014 65 50 7.0 12.0 0.00 0.22 0.22 94 1017.2
20260901143516 65 41 2.0 11.0 0.00 0.22 0.22 94 1017.3
20260901143011 65 25 5.0 11.0 0.00 0.22 0.22 94 1017.2
20260901142506 65 18 5.0 11.0 0.00 0.22 0.22 94 1017.3
20260901142006 65 328 6.0 11.0 0.00 0.22 0.22 94 1017.3
20260901141530 65 24 6.0 11.0 0.00 0.22 0.22 94 1017.3
20260901141010 65 26 6.0 11.0 0.00 0.22 0.22 94 1017.6
20260901140520 65 40 5.0 11.0 0.00 0.22 0.22 94 1017.7
20260901140029 65 43 6.0 9.0 0.00 0.22 0.22 94 1017.8
20260901135511 65 36 4.0 9.0 0.00 0.22 0.22 95 1017.8
20260901135015 64 19 5.0 9.0 0.00 0.22 0.22 94 1017.9
20260901134529 65 33 4.0 6.0 0.00 0.22 0.22 95 1017.9
20260901134014 64 337 4.0 7.0 0.00 0.22 0.22 94 1017.8
20260901133516 64 61 3.0 7.0 0.00 0.22 0.22 94 1017.8
20260901133032 64 298 2.0 7.0 0.00 0.22 0.22 94 1017.9
20260901132515 64 9 1.0 8.0 0.00 0.22 0.22 94 1017.9
20260901132022 64 24 3.0 8.0 0.00 0.22 0.22 94 1018.0
20260901131627 64 19 3.0 8.0 0.00 0.22 0.22 94 1018.0
20260901131009 64 26 4.0 8.0 0.00 0.22 0.22 94 1017.9
20260901130511 64 46 5.0 8.0 0.01 0.22 0.22 94 1018.0
20260901130023 64 327 4.0 9.0 0.01 0.22 0.22 94 1018.0
20260901125514 64 13 4.0 9.0 0.01 0.22 0.22 94 1018.0
20260901125012 64 36 4.0 8.0 0.01 0.22 0.22 94 1017.9
20260901124527 64 39 4.0 8.0 0.02 0.22 0.22 94 1018.1
20260901124014 64 47 3.0 10.0 0.02 0.22 0.22 94 1018.3
20260901123512 64 41 4.0 10.0 0.03 0.22 0.22 94 1018.3
20260901123031 64 23 5.0 10.0 0.04 0.22 0.22 94 1018.2
20260901122514 64 11 5.0 10.0 0.05 0.22 0.22 94 1018.2
20260901122015 64 26 4.0 12.0 0.07 0.22 0.22 94 1018.2
20260901121533 64 342 6.0 12.0 0.09 0.22 0.22 94 1018.1
20260901121016 63 15 5.0 12.0 0.10 0.22 0.22 94 1018.1
20260901120518 64 46 8.0 12.0 0.11 0.21 0.21 94 1018.1
20260901120021 64 25 5.0 8.0 0.13 0.21 0.21 94 1018.1
20260901115516 64 9 3.0 7.0 0.14 0.21 0.21 94 1018.2
20260901115011 64 28 2.0 7.0 0.15 0.21 0.21 94 1018.3
20260901114530 64 9 3.0 8.0 0.16 0.20 0.20 94 1018.2
20260901114014 64 28 3.0 11.0 0.17 0.20 0.20 94 1018.3
20260901113503 64 347 3.0 11.0 0.17 0.19 0.19 93 1018.4
20260901113005 64 319 3.0 10.0 0.17 0.18 0.18 93 1018.4
20260901112502 64 341 4.0 12.0 0.16 0.17 0.17 93 1018.4
20260901112004 65 19 5.0 12.0 0.14 0.15 0.15 93 1018.3
20260901111516 65 19 6.0 12.0 0.13 0.13 0.13 93 1018.0
20260901111005 66 337 7.0 12.0 0.12 0.12 0.12 94 1018.1
20260901110512 66 45 3.0 7.0 0.10 0.10 0.10 94 1018.1
20260901110014 66 36 3.0 5.0 0.08 0.08 0.08 94 1018.0
20260901105516 66 39 3.0 5.0 0.07 0.07 0.07 93 1017.9
20260901105011 66 55 2.0 4.0 0.06 0.06 0.06 93 1017.9
20260901104522 66 41 1.0 4.0 0.04 0.04 0.04 93 1017.9
20260901104012 66 19 2.0 3.0 0.03 0.03 0.03 93 1017.8
20260901103518 66 22 1.0 3.0 0.02 0.02 0.02 93 1017.7
20260901103028 66 17 2.0 3.0 0.01 0.01 0.01 93 1017.5
20260901102516 66 67 1.0 3.0 0.01 0.01 0.01 92 1017.5
20260901102016 66 61 0.0 3.0 0.01 0.01 0.01 92 1017.5
20260901101516 66 178 0.0 3.0 0.00 0.00 0.00 92 1017.4
20260901101006 67 243 1.0 3.0 0.00 0.00 0.00 92 1017.4
20260901100509 67 238 2.0 3.0 0.00 0.00 0.00 92 1017.4
20260901100015 66 221 0.0 2.0 0.00 0.00 0.00 91 1017.3
20260901095505 66 265 0.0 3.0 0.00 0.00 0.00 91 1017.3
20260901095018 67 51 1.0 3.0 0.00 0.00 0.00 91 1017.3
20260901094533 67 41 2.0 3.0 0.00 0.00 0.00 91 1017.3
20260901094012 67 46 1.0 3.0 0.00 0.00 0.00 91 1017.3
20260901093023 67 221 1.0 4.0 0.00 0.00 0.00 90 1017.3
20260901092510 67 221 2.0 3.0 0.00 0.00 0.00 90 1017.3
20260901092014 67 200 2.0 3.0 0.00 0.00 0.00 90 1017.3
20260901091547 67 205 1.0 4.0 0.00 0.00 0.00 90 1017.5
20260901091015 67 265 1.0 4.0 0.00 0.00 0.00 90 1017.5
20260901090517 67 217 2.0 4.0 0.00 0.00 0.00 90 1017.5
20260901090030 67 221 1.0 3.0 0.00 0.00 0.00 90 1017.5
20260901085503 67 146 1.0 4.0 0.00 0.00 0.00 90 1017.5
20260901085007 67 126 1.0 4.0 0.00 0.00 0.00 90 1017.5
20260901084530 67 190 1.0 3.0 0.00 0.00 0.00 90 1017.6
20260901084008 67 209 1.0 3.0 0.00 0.00 0.00 90 1017.6
20260901083507 67 215 2.0 4.0 0.00 0.00 0.00 90 1017.5
20260901083027 67 205 2.0 6.0 0.00 0.00 0.00 90 1017.6
20260901082512 67 254 2.0 7.0 0.00 0.00 0.00 90 1017.6
20260901082014 67 195 4.0 7.0 0.00 0.00 0.00 90 1017.5
20260901081526 67 221 4.0 7.0 0.00 0.00 0.00 90 1017.5
20260901081014 67 208 3.0 6.0 0.00 0.00 0.00 90 1017.4
20260901080514 67 217 4.0 6.0 0.00 0.00 0.00 90 1017.4
20260901080108 67 221 2.0 5.0 0.00 0.00 0.00 91 1017.3
20260901075516 67 208 2.0 6.0 0.00 0.00 0.00 91 1017.3
20260901075018 67 243 2.0 6.0 0.00 0.00 0.00 91 1017.2
20260901074534 67 225 2.0 4.0 0.00 0.00 0.00 91 1017.1
20260901074007 67 232 1.0 4.0 0.00 0.00 0.00 91 1017.2
20260901073507 66 178 2.0 4.0 0.00 0.00 0.00 91 1017.3
20260901073021 66 221 2.0 5.0 0.00 0.00 0.00 91 1017.3
20260901072510 66 221 2.0 5.0 0.00 0.00 0.00 91 1017.3
20260901072011 66 219 3.0 5.0 0.00 0.00 0.00 91 1017.5
20260901071526 66 221 2.0 4.0 0.00 0.00 0.00 91 1017.5
20260901071021 67 208 2.0 3.0 0.00 0.00 0.00 92 1017.6
20260901070511 66 238 0.0 2.0 0.00 0.00 0.00 91 1017.8
20260901070031 66 51 0.0 3.0 0.00 0.00 0.00 91 1017.9
20260901065522 66 9 1.0 4.0 0.00 0.00 0.00 91 1018.0
20260901065014 67 34 3.0 4.0 0.00 0.00 0.00 91 1018.1
20260901064534 67 34 0.0 3.0 0.00 0.00 0.00 91 1018.1
20260901064014 67 238 1.0 3.0 0.00 0.00 0.00 91 1018.0
20260901063522 67 221 1.0 3.0 0.00 0.00 0.00 91 1018.0
20260901063051 67 221 1.0 3.0 0.00 0.00 0.00 91 1018.1
20260901062510 67 265 0.0 3.0 0.00 0.00 0.00 91 1018.1
20260901062009 67 9 0.0 4.0 0.00 0.00 0.00 91 1018.1
20260901061524 67 51 2.0 4.0 0.00 0.00 0.00 91 1018.1
20260901061009 67 51 3.0 5.0 0.00 0.00 0.00 91 1018.2
20260901060512 67 57 3.0 5.0 0.00 0.00 0.00 90 1018.2
20260901060031 67 9 3.0 4.0 0.00 0.00 0.00 91 1018.2
20260901055514 67 38 2.0 4.0 0.00 0.00 0.00 91 1018.1
20260901055014 67 9 1.0 4.0 0.00 0.00 0.00 91 1018.0
20260901054535 67 9 0.0 3.0 0.00 0.00 0.00 90 1018.1
20260901054014 67 41 2.0 3.0 0.00 0.00 0.00 90 1018.1
20260901053516 67 34 1.0 3.0 0.00 0.00 0.00 90 1018.2
20260901053037 67 34 0.0 3.0 0.00 0.00 0.00 90 1018.2
20260901052519 67 9 0.0 4.0 0.00 0.00 0.00 90 1018.2
20260901052020 67 51 2.0 4.0 0.00 0.00 0.00 90 1018.2
20260901051538 67 34 2.0 4.0 0.00 0.00 0.00 90 1018.3
20260901051012 67 34 1.0 4.0 0.00 0.00 0.00 90 1018.2
20260901050510 67 41 2.0 4.0 0.00 0.00 0.00 90 1018.1
20260901050027 67 51 2.0 3.0 0.00 0.00 0.00 89 1018.1
20260901045512 67 51 0.0 1.0 0.00 0.00 0.00 89 1018.0
20260901045011 67 51 0.0 2.0 0.00 0.00 0.00 89 1018.0
20260901044527 67 51 0.0 2.0 0.00 0.00 0.00 89 1018.0
20260901044014 67 265 0.0 1.0 0.00 0.00 0.00 89 1018.0
20260901043516 68 221 0.0 1.0 0.00 0.00 0.00 88 1018.0
20260901043035 68 221 0.0 2.0 0.00 0.00 0.00 88 1018.0
20260901042516 68 265 0.0 2.0 0.00 0.00 0.00 88 1018.0
20260901042005 68 205 0.0 1.0 0.00 0.00 0.00 88 1017.9
20260901041536 68 265 0.0 2.0 0.00 0.00 0.00 88 1018.0
20260901041010 68 265 0.0 2.0 0.00 0.00 0.00 87 1018.0
20260901040516 68 265 0.0 3.0 0.00 0.00 0.00 87 1018.0
20260901040022 68 76 0.0 3.0 0.00 0.00 0.00 87 1018.0
20260901035511 68 22 1.0 2.0 0.00 0.00 0.00 87 1018.0
20260901035010 68 334 1.0 2.0 0.00 0.00 0.00 87 1018.0
20260901034529 68 9 0.0 2.0 0.00 0.00 0.00 87 1018.0
20260901034012 68 325 0.0 2.0 0.00 0.00 0.00 87 1018.0
20260901033513 68 9 0.0 4.0 0.00 0.00 0.00 87 1017.9
20260901033030 68 9 0.0 4.0 0.00 0.00 0.00 87 1018.0
20260901032515 68 229 2.0 4.0 0.00 0.00 0.00 86 1018.0
20260901032017 68 238 1.0 4.0 0.00 0.00 0.00 87 1018.1
20260901031535 68 250 1.0 5.0 0.00 0.00 0.00 86 1018.2
20260901031017 68 300 2.0 5.0 0.00 0.00 0.00 86 1018.2
20260901030506 68 247 2.0 4.0 0.00 0.00 0.00 87 1018.2
20260901030038 68 217 2.0 3.0 0.00 0.00 0.00 87 1018.2
20260901025513 68 238 0.0 2.0 0.00 0.00 0.00 87 1018.3
20260901025012 68 325 1.0 4.0 0.00 0.00 0.00 87 1018.4
20260901024531 68 265 0.0 4.0 0.00 0.00 0.00 86 1018.3
20260901024015 68 163 1.0 4.0 0.00 0.00 0.00 86 1018.4
20260901023512 68 190 2.0 5.0 0.00 0.00 0.00 86 1018.3
20260901023030 68 225 3.0 5.0 0.00 0.00 0.00 86 1018.3
20260901022514 68 238 2.0 4.0 0.00 0.00 0.00 87 1018.2
20260901022015 68 234 2.0 4.0 0.00 0.00 0.00 87 1018.3
20260901021531 68 215 2.0 3.0 0.00 0.00 0.00 86 1018.2
20260901021016 68 265 2.0 3.0 0.00 0.00 0.00 86 1018.2
20260901020517 68 229 2.0 3.0 0.00 0.00 0.00 86 1018.2
20260901020038 68 243 2.0 3.0 0.00 0.00 0.00 87 1018.2
20260901015520 68 247 1.0 3.0 0.00 0.00 0.00 86 1018.2
20260901015018 69 51 0.0 2.0 0.00 0.00 0.00 86 1018.3
20260901014524 69 178 0.0 3.0 0.00 0.00 0.00 85 1018.2
20260901014019 69 265 1.0 3.0 0.00 0.00 0.00 84 1018.3
20260901013514 69 325 0.0 3.0 0.00 0.00 0.00 85 1018.3
20260901013007 69 265 1.0 4.0 0.00 0.00 0.00 85 1018.3
20260901012502 69 212 1.0 4.0 0.00 0.00 0.00 84 1018.3
20260901012002 69 227 2.0 4.0 0.00 0.00 0.00 84 1018.3
20260901011514 69 221 2.0 4.0 0.00 0.00 0.00 83 1018.3
20260901011002 69 218 3.0 4.0 0.00 0.00 0.00 83 1018.2
20260901010506 69 247 2.0 4.0 0.00 0.00 0.00 83 1018.2
20260901010037 69 241 2.0 4.0 0.00 0.00 0.00 83 1018.3
20260901005509 70 208 2.0 4.0 0.00 0.00 0.00 83 1018.3
20260901005021 70 200 2.0 5.0 0.00 0.00 0.00 82 1018.2
20260901004523 69 215 2.0 5.0 0.00 0.00 0.00 83 1018.2
20260901004011 70 212 3.0 6.0 0.00 0.00 0.00 83 1018.2
20260901003517 70 205 3.0 6.0 0.00 0.00 0.00 82 1018.2
20260901003031 70 208 3.0 6.0 0.00 0.00 0.00 81 1018.2
20260901002517 70 219 3.0 6.0 0.00 0.00 0.00 81 1018.3
20260901002012 70 208 3.0 6.0 0.00 0.00 0.00 81 1018.2
20260901001503 71 205 2.0 5.0 0.00 0.00 0.00 80 1018.2
20260901001003 71 229 3.0 6.0 0.00 0.00 0.00 79 1018.1
20260901000503 70 225 3.0 6.0 0.00 0.00 0.00 79 1018.1
20260901000018 70 218 3.0 5.0 0.00 0.00 0.00 81 1018.1
20260831235507 70 215 3.0 5.0 0.00 0.00 0.00 81 1018.0
20260831235007 71 195 3.0 5.0 0.00 0.00 0.00 80 1018.0
20260831234518 71 221 3.0 7.0 0.00 0.00 0.00 77 1018.1
20260831234008 72 234 3.0 7.0 0.00 0.00 0.00 77 1018.1
20260831233508 72 232 3.0 7.0 0.00 0.00 0.00 76 1018.1
20260831233022 72 243 3.0 7.0 0.00 0.00 0.00 76 1018.2
20260831232509 72 212 3.0 6.0 0.00 0.00 0.00 76 1018.2
20260831232011 72 216 3.0 8.0 0.00 0.00 0.00 76 1018.3
20260831231536 72 218 4.0 8.0 0.00 0.00 0.00 78 1018.4
20260831231016 72 214 3.0 5.0 0.00 0.00 0.00 77 1018.4
20260831230517 72 221 2.0 6.0 0.00 0.00 0.00 77 1018.5
20260831230033 73 215 3.0 6.0 0.00 0.00 0.00 76 1018.5
20260831225502 73 229 4.0 6.0 0.00 0.00 0.00 74 1018.6
20260831225006 73 218 3.0 6.0 0.00 0.00 0.00 73 1018.6
20260831224533 73 219 4.0 7.0 0.00 0.00 0.00 73 1018.6
20260831224010 73 219 4.0 7.0 0.00 0.00 0.00 73 1018.6
20260831223506 73 225 4.0 7.0 0.00 0.00 0.00 73 1018.7
20260831223017 74 221 3.0 7.0 0.00 0.00 0.00 73 1018.6
20260831222511 74 227 4.0 7.0 0.00 0.00 0.00 72 1018.7
20260831222011 74 221 3.0 8.0 0.00 0.00 0.00 72 1018.7
20260831221525 74 219 3.0 8.0 0.00 0.00 0.00 71 1018.6
20260831221014 74 188 2.0 7.0 0.00 0.00 0.00 71 1018.7
20260831220514 74 225 5.0 7.0 0.00 0.00 0.00 70 1018.7
20260831220030 74 215 4.0 8.0 0.00 0.00 0.00 71 1018.6
20260831215522 74 224 5.0 10.0 0.00 0.00 0.00 70 1018.6
20260831215019 74 241 6.0 10.0 0.00 0.00 0.00 70 1018.6
20260831214543 74 212 6.0 11.0 0.00 0.00 0.00 70 1018.6
20260831214010 74 200 5.0 11.0 0.00 0.00 0.00 69 1018.6
20260831213506 75 225 5.0 9.0 0.00 0.00 0.00 69 1018.5
20260831213019 75 229 4.0 11.0 0.00 0.00 0.00 68 1018.6
20260831212506 75 207 5.0 11.0 0.00 0.00 0.00 67 1018.6
20260831212018 76 219 5.0 11.0 0.00 0.00 0.00 67 1018.6
20260831211525 76 217 3.0 13.0 0.00 0.00 0.00 66 1018.6
20260831211019 76 210 6.0 15.0 0.00 0.00 0.00 64 1018.5
20260831210514 77 188 7.0 15.0 0.00 0.00 0.00 63 1018.4
20260831210032 77 163 6.0 11.0 0.00 0.00 0.00 62 1018.4
20260831205514 78 218 3.0 10.0 0.00 0.00 0.00 66 1018.4
20260831205016 77 219 3.0 8.0 0.00 0.00 0.00 64 1018.5
20260831204537 77 196 4.0 7.0 0.00 0.00 0.00 64 1018.6
20260831204015 76 236 2.0 10.0 0.00 0.00 0.00 64 1018.7
20260831203514 76 225 5.0 10.0 0.00 0.00 0.00 63 1018.7
20260831203038 76 196 6.0 15.0 0.00 0.00 0.00 63 1018.7
20260831202517 76 178 6.0 15.0 0.00 0.00 0.00 62 1018.6
20260831202008 77 178 7.0 13.0 0.00 0.00 0.00 60 1018.6
20260831201520 78 191 8.0 17.0 0.00 0.00 0.00 58 1018.5
20260831201008 78 219 7.0 17.0 0.00 0.00 0.00 58 1018.6
20260831200511 78 215 7.0 17.0 0.00 0.00 0.00 58 1018.8
20260831200026 78 205 8.0 17.0 0.00 0.00 0.00 58 1018.7
20260831195514 78 247 7.0 17.0 0.00 0.00 0.00 58 1018.8
20260831195012 78 186 11.0 19.0 0.00 0.00 0.00 57 1018.7
20260831194529 79 219 7.0 19.0 0.00 0.00 0.00 56 1018.8
20260831194021 79 207 4.0 11.0 0.00 0.00 0.00 56 1018.8
20260831193516 79 178 7.0 11.0 0.00 0.00 0.00 57 1019.0
20260831193043 79 231 4.0 14.0 0.00 0.00 0.00 56 1019.1
20260831192516 79 212 8.0 14.0 0.00 0.00 0.00 57 1019.1
20260831192022 79 250 9.0 14.0 0.00 0.00 0.00 59 1019.1
20260831191544 78 169 6.0 12.0 0.00 0.00 0.00 60 1019.1
20260831191018 78 178 3.0 12.0 0.00 0.00 0.00 62 1019.1
20260831190510 78 133 3.0 13.0 0.00 0.00 0.00 60 1019.2
20260831190027 78 229 7.0 13.0 0.00 0.00 0.00 59 1019.3
20260831185513 78 237 7.0 12.0 0.00 0.00 0.00 61 1019.3
20260831185011 77 158 5.0 8.0 0.00 0.00 0.00 62 1019.3
20260831184528 76 187 4.0 10.0 0.00 0.00 0.00 63 1019.4
20260831184017 76 173 4.0 10.0 0.00 0.00 0.00 62 1019.4
20260831183517 76 236 6.0 9.0 0.00 0.00 0.00 60 1019.4
20260831183031 76 196 3.0 12.0 0.00 0.00 0.00 61 1019.3
20260831182514 76 241 5.0 12.0 0.00 0.00 0.00 60 1019.5
20260831182018 77 208 8.0 12.0 0.00 0.00 0.00 59 1019.5
20260831181530 77 160 4.0 10.0 0.00 0.00 0.00 61 1019.5
20260831181022 77 146 4.0 12.0 0.00 0.00 0.00 62 1019.6
20260831180522 77 175 7.0 12.0 0.00 0.00 0.00 57 1019.6
20260831180036 77 219 5.0 12.0 0.00 0.00 0.00 60 1019.6
20260831175519 76 219 4.0 13.0 0.00 0.00 0.00 58 1019.7
20260831175012 76 190 8.0 13.0 0.00 0.00 0.00 60 1019.7
20260831174526 76 227 4.0 11.0 0.00 0.00 0.00 61 1019.8
20260831174017 76 196 5.0 11.0 0.00 0.00 0.00 60 1019.9
20260831173514 76 156 3.0 10.0 0.00 0.00 0.00 63 1019.9
20260831173040 76 157 3.0 10.0 0.00 0.00 0.00 55 1019.9
20260831172515 76 189 5.0 10.0 0.00 0.00 0.00 57 1020.0